Погода в Новиковке

Россия / Томская область     56˚55′26″N   85˚57′12″E
темп.,
°C
ветер,
м/с
пор.,
м/с
влажн.,
%
обл.,
%
осадки,
мм/ч
давл.,
гПа
погр.,
м
17 января, вс
вс1701:00−14˚юз31090100 0.0 1020313
04:00−13˚ююз31088100 0.0 1017307
07:00−12˚ююз31084100 0.0 1014329
10:00−10˚ю51279100 0.0 1010398
13:00−10˚ююз41282100 0.0 1006627
16:00−9˚юз61285100 0.0 1005750
19:00−10˚зюз71489100 0.1 1008710
22:00−12˚зюз61490100 0.0 1010511
18 января, пн
пн1801:00−10˚юз61490100 0.1 1011480
04:00−10˚ююз71687100 0.0 1009471
07:00−8˚ююз91692100 0.4 1005761
10:00−9˚юз61389100 0.7 1005738
13:00−9˚зюз7128791 0.8 10051058
16:00−10˚зюз6119096 0.1 1006907
19:00−12˚зюз6138989 0.2 1009626
22:00−14˚зюз6139183 0.1 1012642
19 января, вт
вт1901:00−18˚зсз499392 0.1 1016346
04:00−23˚зюз349466 0.0 101969
07:00−24˚юз349643 0.0 102082
10:00−21˚ююз3994100 0.0 1019270
13:00−19˚ююз5990100 0.0 1018366
16:00−18˚ююз4989100 0.0 1015365
19:00−21˚юз4993100 0.0 1015205
22:00−21˚зюз4995100 0.0 1015235
20 января, ср
ср2001:00−24˚зюз369798 0.0 101691
04:00−27˚зюз349881 0.0 101778
07:00−28˚з349981 0.0 101978
10:00−31˚зсз339748 0.0 102130
13:00−28˚ссз239424 0.0 1023191
16:00−28˚ссв229534 0.0 102359
19:00−29˚св229464 0.0 102327
22:00−27˚всв2395100 0.0 1022191
21 января, чт
чт2101:00−27˚всв2398100 0.1 1021101
04:00−27˚св2299100 0.1 1021102
07:00−27˚ссв1198100 0.2 102146
10:00−27˚с1199100 0.1 102021
13:00−25˚с1194100 0.1 1020189
16:00−25˚с1297100 0.0 101988
19:00−28˚с239997 0.1 102023
22:00−29˚ссв3398100 0.0 101864